星链-34752(STARLINK-34752)

导读 | 豆包AI

STARLINK-34752是美国SpaceX星链互联网卫星项目中的一颗卫星,于北京时间2025年10月25日发射。它属于星链低轨卫星星座,承担着为全球提供高速低延迟互联网服务的任务,依托星链大规模星座组网部署,助力拓展全球通信网络覆盖,推动天地一体化网络建设。

基本信息
目录编号:
66153
目录名称:
STARLINK-34752
国际标识:
2025-240H
轨道中心:
EARTH
卫星名称:
星链-34752
卫星全名:
星链-34752(STARLINK-34752)
卫星状态:
在轨 (已飞行161 天)
发射日期:
2025-10-25 UTC
国别 :
美国 (US)
星等 :
--
轨道信息
数据来源 国际轨道数据
星历时间: 2026-04-04T02:25:48+0800
15小时前
查看轨道信息
半长轴: 6853.174km
偏心率: 0.0001539
轨道倾角: 53.160°
近地点辐角 46.449°
升交点赤经 306.643°
平近点角 313.664°
近地点: 473.982km
远地点: 476.092km
周期: 94.102分钟
每日圈数: 15.302599
详细信息
固有亮度:
5
最大亮度:
2.5
卫星平台:
Starlink V1.0
覆盖范围:
全球
运营商:
太空探索技术公司
运营商所在国:
美国
制造商(研发单位):
太空探索技术公司
制造商所在国:
美国
使用方式:
暂无
卫星简介
Starlink 计划是 SpaceX 推出的全球卫星互联网项目,通过发射低轨道卫星,为全球尤其是偏远地区提供高速、低延迟的互联网服务。自 2019 年起,Starlink 已部署数千颗卫星,旨在缩小全球数字鸿沟,推动互联网普及。该项目还为军事、航空等行业提供通信支持,带来广泛经济效益。
2D轨道图
3D轨道图
轨道高度分析图
轨道倾角分析图
轨道综合分析图
查看轨道综合分析图